CW4845 Weather Reports


time (UTC)temp
F
wind
direction
speed
knots
gust
knots
rain 1hr
in
rain 24hr
in
rain mn
in
humidity
%
barometer
mb
20260504043958 54 232 10.4 14.8 0.00 0.00 0.00 53 1013.1
20260504043953 54 238 10.4 14.8 0.00 0.00 0.00 54 1012.9
20260504042931 54 219 10.4 14.8 0.00 0.00 0.00 53 1012.9
20260504042429 54 253 11.3 15.6 0.00 0.00 0.00 53 1012.9
20260504042152 54 230 11.3 15.6 0.00 0.00 0.00 53 1012.9
20260504041429 54 236 10.4 14.8 0.00 0.00 0.00 54 1012.9
20260504040929 54 236 9.6 14.8 0.00 0.00 0.00 53 1012.8
20260504040859 54 214 9.6 13.9 0.00 0.00 0.00 53 1012.8
20260504035919 54 230 9.6 14.8 0.00 0.00 0.00 53 1012.8
20260504035418 54 238 9.6 14.8 0.00 0.00 0.00 53 1012.7
20260504034919 54 235 9.6 13.9 0.00 0.00 0.00 53 1012.7
20260504034628 54 225 9.6 13.9 0.00 0.00 0.00 53 1012.7
20260504033908 54 214 9.6 13.9 0.00 0.00 0.00 52 1012.7
20260504033355 54 229 10.4 15.6 0.00 0.00 0.00 51 1012.7
20260504032852 54 229 10.4 15.6 0.00 0.00 0.00 52 1012.7
20260504032354 54 226 10.4 14.8 0.00 0.00 0.00 52 1012.7
20260504031851 54 206 9.6 14.8 0.00 0.00 0.00 51 1012.7
20260504031352 54 217 9.6 13.9 0.00 0.00 0.00 52 1012.7
20260504030837 54 224 9.6 13.9 0.00 0.00 0.00 52 1012.6
20260504030336 54 224 8.7 13.9 0.00 0.00 0.00 52 1012.6
20260504025837 55 232 8.7 13.0 0.00 0.00 0.00 52 1012.6
20260504025307 55 225 8.7 11.3 0.00 0.00 0.00 52 1012.7
20260504024804 55 239 8.7 12.2 0.00 0.00 0.00 52 1012.7
20260504024306 55 241 8.7 13.0 0.00 0.00 0.00 51 1012.7
20260504023750 55 217 8.7 13.0 0.00 0.00 0.00 50 1012.7
20260504023225 55 237 9.6 13.9 0.00 0.00 0.00 50 1012.7
20260504022721 55 233 10.4 13.9 0.00 0.00 0.00 49 1012.7
20260504022218 55 229 8.7 13.0 0.00 0.00 0.00 49 1012.6
20260504021708 55 235 8.7 13.0 0.00 0.00 0.00 50 1012.6
20260504021145 56 231 8.7 12.2 0.00 0.00 0.00 51 1012.6
20260504020647 56 226 7.8 11.3 0.00 0.00 0.00 52 1012.6
20260504020127 56 236 8.7 12.2 0.00 0.00 0.00 51 1012.6
20260504015850 56 235 9.6 12.2 0.00 0.00 0.00 50 1012.6
20260504015106 56 248 8.7 12.2 0.00 0.00 0.00 50 1012.5
20260504014603 56 234 8.7 12.2 0.00 0.00 0.00 50 1012.5
20260504014058 56 220 8.7 12.2 0.00 0.00 0.00 50 1012.5
20260504013539 56 217 8.7 12.2 0.00 0.00 0.00 49 1012.3
20260504013042 56 230 8.7 12.2 0.00 0.00 0.00 49 1012.3
20260504012514 56 239 8.7 12.2 0.00 0.00 0.00 47 1012.3
20260504012012 57 219 8.7 12.2 0.00 0.00 0.00 48 1012.1
20260504011924 57 235 7.8 12.2 0.00 0.00 0.00 48 1012.1
20260504010940 57 226 7.8 11.3 0.00 0.00 0.00 49 1011.8
20260504010440 57 244 7.0 11.3 0.00 0.00 0.00 48 1011.8
20260504005914 57 215 7.0 10.4 0.00 0.00 0.00 49 1011.8
20260504005414 57 219 7.0 10.4 0.00 0.00 0.00 48 1011.8
20260504004852 57 228 6.1 10.4 0.00 0.00 0.00 48 1011.8
20260504004611 57 204 6.1 9.6 0.00 0.00 0.00 48 1011.8
20260504003848 58 218 7.0 10.4 0.00 0.00 0.00 47 1011.6
20260504003350 58 211 7.0 10.4 0.00 0.00 0.00 46 1011.6
20260504002838 58 230 7.8 10.4 0.00 0.00 0.00 45 1011.6
20260504002605 58 253 7.8 10.4 0.00 0.00 0.00 44 1011.3
20260504001836 58 242 7.0 10.4 0.00 0.00 0.00 44 1011.3
20260504001600 58 222 6.1 9.6 0.00 0.00 0.00 44 1011.3
20260504001049 58 222 6.1 9.6 0.00 0.00 0.00 42 1011.2
20260504000333 59 239 5.2 8.7 0.00 0.00 0.00 41 1011.2
20260503235814 59 226 5.2 8.7 0.00 0.00 0.00 44 1011.2
20260503235312 59 251 4.3 8.7 0.00 0.00 0.00 44 1011.2
20260503235036 59 250 5.2 8.7 0.00 0.00 0.00 42 1011.2
20260503234257 59 251 5.2 8.7 0.00 0.00 0.00 40 1011.2
20260503233754 59 242 5.2 8.7 0.00 0.00 0.00 38 1010.9
20260503233254 60 236 6.1 11.3 0.00 0.00 0.00 38 1010.9
20260503233003 60 290 6.1 11.3 0.00 0.00 0.00 37 1010.9
20260503232242 60 298 7.0 12.2 0.00 0.00 0.00 35 1011.0
20260503231727 60 270 7.0 13.0 0.00 0.00 0.00 35 1011.0
20260503231219 60 285 7.8 13.9 0.00 0.00 0.00 35 1011.0
20260503230713 60 295 9.6 13.9 0.00 0.00 0.00 34 1010.9
20260503230214 60 219 9.6 13.9 0.00 0.00 0.00 34 1010.9
20260503230123 60 289 11.3 18.2 0.00 0.00 0.00 33 1010.9
20260503225141 60 257 11.3 18.2 0.00 0.00 0.00 35 1010.7
20260503224642 60 265 9.6 14.8 0.00 0.00 0.00 34 1010.7
20260503224113 61 258 9.6 15.6 0.00 0.00 0.00 35 1010.7
20260503223610 61 292 11.3 18.2 0.00 0.00 0.00 34 1010.7
20260503223111 61 293 12.2 18.2 0.00 0.00 0.00 35 1010.7
20260503222550 61 302 12.2 17.4 0.00 0.00 0.00 34 1010.7
20260503222049 61 296 11.3 17.4 0.00 0.00 0.00 33 1010.7
20260503221815 61 298 13.9 22.6 0.00 0.00 0.00 35 1010.7
20260503221032 61 330 14.8 23.5 0.00 0.00 0.00 34 1010.7
20260503220527 61 246 13.0 23.5 0.00 0.00 0.00 33 1010.6
20260503220028 62 261 12.2 20.0 0.00 0.00 0.00 33 1010.6
20260503215506 61 252 13.0 20.0 0.00 0.00 0.00 33 1010.6
20260503215006 61 303 13.0 21.7 0.00 0.00 0.00 33 1010.5
20260503214705 61 286 13.0 21.7 0.00 0.00 0.00 33 1010.5
20260503213948 61 284 13.0 19.1 0.00 0.00 0.00 34 1010.5
20260503213447 62 299 13.0 18.2 0.00 0.00 0.00 32 1010.5
20260503212945 62 301 13.0 18.2 0.00 0.00 0.00 34 1010.5
20260503212441 62 280 12.2 20.9 0.00 0.00 0.00 34 1010.6
20260503211940 61 285 13.9 20.9 0.00 0.00 0.00 35 1010.6
20260503211437 61 315 13.9 20.9 0.00 0.00 0.00 34 1010.6
20260503210914 61 291 13.9 24.3 0.00 0.00 0.00 36 1010.5
20260503210417 61 269 13.0 24.3 0.00 0.00 0.00 35 1010.5
20260503205851 61 284 13.0 20.9 0.00 0.00 0.00 32 1010.5
20260503205323 61 297 15.6 22.6 0.00 0.00 0.00 32 1010.4
20260503205049 61 270 13.9 22.6 0.00 0.00 0.00 34 1010.4
20260503204253 61 301 13.9 22.6 0.00 0.00 0.00 32 1010.4
20260503203750 62 253 13.0 24.3 0.00 0.00 0.00 33 1010.3
20260503203704 62 323 12.2 24.3 0.00 0.00 0.00 33 1010.3
20260503202723 62 270 13.0 19.1 0.00 0.00 0.00 33 1010.3
20260503202215 62 279 12.2 19.1 0.00 0.00 0.00 34 1010.3
20260503201711 61 257 13.0 20.9 0.00 0.00 0.00 34 1010.3
20260503201434 61 301 13.0 20.9 0.00 0.00 0.00 34 1010.3
20260503201159 60 256 12.2 20.0 0.00 0.00 0.00 35 1010.6
20260503200155 60 258 13.0 20.0 0.00 0.00 0.00 34 1010.6
20260503195858 60 280 13.0 20.0 0.00 0.00 0.00 34 1010.6
20260503195112 61 266 13.9 21.7 0.00 0.00 0.00 37 1010.7
20260503194551 61 257 14.8 21.7 0.00 0.00 0.00 34 1010.7
20260503194052 61 280 13.9 20.9 0.00 0.00 0.00 37 1010.7
20260503193553 60 281 14.8 20.9 0.00 0.00 0.00 37 1010.7
20260503193050 60 319 13.0 20.9 0.00 0.00 0.00 36 1010.7
20260503192531 60 290 13.9 20.0 0.00 0.00 0.00 36 1010.7
20260503192019 60 289 14.8 20.9 0.00 0.00 0.00 35 1010.9
20260503191518 60 269 13.0 20.9 0.00 0.00 0.00 37 1010.9
20260503191008 60 320 13.0 20.0 0.00 0.00 0.00 37 1011.1
20260503190440 60 307 12.2 20.0 0.00 0.00 0.00 39 1011.1
20260503185938 59 299 12.2 18.2 0.00 0.00 0.00 38 1011.1
20260503185439 60 282 13.0 18.2 0.00 0.00 0.00 36 1011.1
20260503185359 59 280 13.0 23.5 0.00 0.00 0.00 38 1011.1
20260503184415 59 284 13.0 23.5 0.00 0.00 0.00 39 1011.1
20260503183917 59 314 13.9 21.7 0.00 0.00 0.00 38 1011.2
20260503183405 59 298 15.6 23.5 0.00 0.00 0.00 37 1011.2
20260503182900 58 313 14.8 24.3 0.00 0.00 0.00 38 1011.2
20260503182402 58 305 13.0 24.3 0.00 0.00 0.00 38 1011.2
20260503181900 58 260 13.0 22.6 0.00 0.00 0.00 37 1011.2
20260503181400 58 288 13.9 22.6 0.00 0.00 0.00 37 1011.2
20260503180841 59 306 13.0 20.9 0.00 0.00 0.00 37 1011.2
20260503180338 59 305 14.8 20.9 0.00 0.00 0.00 39 1011.2
20260503175839 58 308 15.6 20.9 0.00 0.00 0.00 37 1011.2
20260503175317 58 305 12.2 20.9 0.00 0.00 0.00 38 1011.3
20260503174751 57 307 12.2 21.7 0.00 0.00 0.00 41 1011.3
20260503174243 57 280 14.8 21.7 0.00 0.00 0.00 40 1011.3
20260503173743 56 303 15.6 21.7 0.00 0.00 0.00 43 1011.2
20260503173226 57 288 14.8 20.9 0.00 0.00 0.00 42 1011.2
20260503172705 57 326 13.0 20.0 0.00 0.00 0.00 41 1011.2
20260503172202 57 279 13.0 20.0 0.00 0.00 0.00 41 1011.2
20260503171634 57 305 13.0 20.9 0.00 0.00 0.00 41 1011.2
20260503171133 57 279 13.0 20.9 0.00 0.00 0.00 41 1011.2
20260503170636 56 309 12.2 19.1 0.00 0.00 0.00 40 1011.2
20260503170122 57 302 13.0 20.9 0.00 0.00 0.00 39 1011.2
20260503150711 56 294 10.4 16.5 0.00 0.00 0.00 44 1011.7
20260503150212 56 290 10.4 16.5 0.00 0.00 0.00 46 1011.7
20260503131340 50 315 13.0 22.6 0.00 0.00 0.00 57 1011.3
20260503131041 50 328 13.0 22.6 0.00 0.00 0.00 57 1011.2
20260503130300 50 336 14.8 23.5 0.00 0.00 0.00 56 1011.2
20260503110826 49 309 12.2 18.2 0.00 0.00 0.00 59 1010.2
20260503110323 49 312 11.3 17.4 0.00 0.00 0.00 60 1010.2
20260503100231 49 298 9.6 12.2 0.00 0.00 0.00 54 1009.1
20260503081331 51 304 6.1 11.3 0.00 0.00 0.00 57 1008.5
20260503081054 51 319 7.0 11.3 0.00 0.00 0.00 57 1008.6
20260503080328 51 318 6.1 11.3 0.00 0.00 0.00 57 1008.6
20260503072658 52 344 7.0 13.0 0.00 0.00 0.00 54 1008.6
20260503072133 52 319 7.0 12.2 0.00 0.00 0.00 54 1008.6
20260503071635 52 291 7.0 11.3 0.00 0.00 0.00 54 1008.6
20260503071112 52 333 7.8 12.2 0.00 0.00 0.00 53 1008.6
20260503070548 52 328 7.0 12.2 0.00 0.00 0.00 53 1008.6
20260503054928 54 348 9.6 13.9 0.00 0.00 0.00 53 1008.8
20260503054421 54 315 9.6 13.9 0.00 0.00 0.00 53 1008.8
20260503053921 54 313 8.7 13.9 0.00 0.00 0.00 54 1008.8
20260503053411 54 300 7.8 13.0 0.00 0.00 0.00 54 1008.8
20260503052908 54 328 8.7 13.9 0.00 0.00 0.00 54 1008.8
20260503052406 54 282 7.8 13.9 0.00 0.00 0.00 54 1008.8
20260503052124 54 346 8.7 13.9 0.00 0.00 0.00 55 1008.8
20260503051403 54 296 8.7 13.9 0.00 0.00 0.00 55 1008.8
20260503051128 54 302 7.0 13.0 0.00 0.00 0.00 56 1009.1
20260503050403 54 336 7.0 12.2 0.00 0.00 0.00 56 1009.1
20260503045901 54 335 7.8 13.0 0.00 0.00 0.00 56 1009.1
20260503045401 54 298 7.8 12.2 0.00 0.00 0.00 56 1009.2
20260503045125 54 301 7.8 12.2 0.00 0.00 0.00 56 1009.2
20260503044349 54 319 8.7 13.0 0.00 0.00 0.00 56 1009.2